Location: Chervonnoye
(48.6000°N, 34.4000°E)
Time: 04:17:59
(UTC+00:00)

COSMOS 2251 DEB - Visible Passes

Search period start: 15 June 2021 00:00
Search period end: 25 June 2021 00:00
Orbit: 633 x 923 km, 73.9° (Epoch: 14 June)

Date Brightness Start Highest point End Pass type
(mag) Time Alt. Az. Time Alt. Az. Time Alt. Az.
15 Jun ? 19:51:17 10° NNW 19:56:23 79° WSW 19:59:24 23° SSE visible
16 Jun ? 19:17:11 10° NNW 19:22:17 68° ENE 19:25:56 17° SE visible
16 Jun ? 21:00:50 10° WNW 21:03:51 16° W 21:06:24 11° SW visible
17 Jun ? 18:43:11 10° NNW 18:48:04 44° ENE 18:52:29 11° SE visible
17 Jun ? 20:26:01 10° NW 20:30:03 25° W 20:32:57 15° SW visible
18 Jun ? 19:51:33 10° NW 19:56:10 40° WSW 19:59:32 16° SSW visible
19 Jun ? 19:17:16 10° NNW 19:22:11 63° WSW 19:26:08 14° S visible
20 Jun ? 18:43:07 10° NNW 18:48:07 83° ENE 18:52:45 10° SSE visible
20 Jun ? 20:27:26 10° WNW 20:29:31 13° W 20:31:32 10° WSW visible
21 Jun ? 19:52:14 10° NW 19:55:45 20° W 19:59:07 10° SW visible
22 Jun ? 19:17:37 10° NW 19:21:53 31° WSW 19:25:56 10° SSW visible
23 Jun ? 18:43:14 10° NNW 18:47:57 50° WSW 18:52:21 10° S visible
